Location: Cahas Mountain Overlook
(37.0833°N, 80.1000°W)
Time: 18:40:37
(UTC-04:00)

SR - Pass Details

Date: 14 February 2026
Orbit: 572 x 849 km, 66.7° (Epoch: 12 March)

Event Time Altitude Azimuth Distance (km) Brightness Sun altitude
Rises 06:23:52 0° 240° (WSW) 2,764 - -9.9°
Reaches altitude 10° 06:26:28 10° 256° (WSW) 1,877 - -9.3°
Exits shadow 06:26:29 10° 256° (WSW) 1,873 ? -9.3°
Maximum altitude 06:29:44 22° 308° (NW) 1,304 ? -8.7°
Drops below altitude 10° 06:33:06 10° 359° (N) 1,941 ? -8.0°
Sets 06:35:51 0° 15° (NNE) 2,887 ? -7.5°
